Regional Weather Roundup
Issued by NWS Kansas City/Pleasant Hill, MO

Home | Current Version | Previous Version | Text Only | Print | Product List | Glossary On
Versions: 1 2 3 4 5 6 7 8 9 10 11 12 13 14 15 16 17 18 19 20 21 22 23 24 25 26 27 28 29 30 31 32 33 34 35 36 37 38 39 40 41 42 43 44 45 46 47 48 49 50
000
ASUS43 KEAX 252004
RWREAX

WEATHER ROUNDUP FOR EASTERN KANSAS AND NORTHWEST MISSOURI
NATIONAL WEATHER SERVICE KANSAS CITY/PLEASANT HILL MO
200 PM CST SUN JAN 25 2015

KSZ040-057-103>105-MOZ028-029-037-043-252100-
...KANSAS CITY METROPOLITAN AREA...

CITY           SKY/WX    TMP DP  RH WIND       PRES   REMARKS
K.C. INTL      CLOUDY    38  34  85 N18G30    29.87R WCI  28
K.C. DOWNTOWN  CLOUDY    40  33  76 N18G32    29.87R WCI  31
LEES SUMMIT    CLOUDY    38  33  82 N25G36    29.85R WCI  27
OLATHE - IXD   CLOUDY    38  34  85 N24       29.88R WCI  27
OLATHE - OJC   CLOUDY    39  34  82 N17G32    29.85R WCI  30
LAWRENCE       CLOUDY    39  33  79 N24G33    29.92R WCI  28

$$

MOZ001>008-011>017-020>025-030>033-038>040-044>046-053-054-252100-
...NORTHERN AND CENTRAL MISSOURI...

CITY           SKY/WX    TMP DP  RH WIND       PRES   REMARKS
ST. JOSEPH     CLOUDY    38  33  82 N22       29.93R WCI  27
MOSBY          CLOUDY    37  32  81 N22G31    29.86R WCI  27
WARRENSBURG    CLOUDY    37  32  81 NW20G26   29.82R WCI  27
WHITEMAN AFB   LGT RAIN  38  35  89 N23G32    29.79R WCI  27
CLINTON        LGT RAIN  39  36  87 NW17G28   29.80R WCI  30
SEDALIA        LGT RAIN  38  35  89 NW16G29   29.77R WCI  29
WARSAW         NOT AVBL
MARSHALL       LGT RAIN  41  39  93 NW14G22   29.76R WCI  33
CHILLICOTHE      N/A     37  32  82 N8G22     29.86R WCI  31
MOBERLY        CLOUDY    36  32  87 N17G23    29.77  WCI  25
KIRKSVILLE     CLOUDY    33  31  92 N20       29.82R WCI  21

$$

MOZ041-047>049-056>058-063>065-088>090-097-252100-
...EASTERN AND SOUTHERN MISSOURI...

CITY           SKY/WX    TMP DP  RH WIND       PRES   REMARKS
ST. LOUIS INTL LGT RAIN  46  43  89 N13       29.61R FOG
SPIRIT OF STL  LGT RAIN  45  42  89 W10       29.61R
COLUMBIA       LGT RAIN  41  41 100 N13       29.69R WCI  34
JEFFERSON CITY LGT RAIN  39  37  92 NW12      29.69R WCI  32
MEXICO         CLOUDY   N/A N/A N/A N17G26    29.69R FOG
HANNIBAL       LGT SNOW  34  32  93 N12       29.73R WCI  25
ROLLA          LGT RAIN  39  35  86 W23G29    29.65R WCI  28
LEBANON        MIX PCPN  37  34  87 NW13G20   29.72S WCI  29
OSAGE BEACH    CLOUDY    37  34  87 W10G20    29.72R WCI  30
SPRINGFIELD    LGT RAIN  38  34  85 NW17G24   29.78R FOG     WCI  28
BRANSON        CLOUDY    39  32  75 N21       29.79R WCI  29
NEVADA         CLOUDY    39  32  75 NW17G28   29.85R WCI  30
JOPLIN         CLOUDY    42  31  64 NW22G30   29.87R WCI  33
WEST PLAINS    CLOUDY    42  34  73 NW15G25   29.69R WCI  34

$$

IAZ060-094-KSZ022-034>040-054-083-096-NEZ052-066-093-252100-
...KANSAS...SOUTHEAST NEBRASKA AND IOWA...

CITY           SKY/WX    TMP DP  RH WIND       PRES   REMARKS
TOPEKA         CLOUDY    40  32  73 NW21G26   29.96R WCI  30
MANHATTAN      CLOUDY    45  31  58 N15G24    30.01R
EMPORIA        CLOUDY    45  31  58 NW22G31   29.94R
CHANUTE        CLOUDY    43  32  65 NW23G33   29.93R WCI  34
WICHITA        PTSUNNY   50  29  44 N26G38    30.00R
OMAHA          CLOUDY    41  32  70 N14       29.99R WCI  33
LINCOLN        CLOUDY    39  31  72 N21       30.04R WCI  29
FALLS CITY     CLOUDY    38  32  79 N18G26    29.97R WCI  28
LAMONI         CLOUDY    34  30  85 N16G31    29.88R WCI  24
DES MOINES     PTSUNNY   35  28  75 N14G22    29.93R WCI  26

$$




USA.gov is the U.S. government's official web portal to all federal, state and local government web resources and services.